Time,TemperatureF,DewpointF,PressureIn,WindDirection,WindDirectionDegrees,WindSpeedMPH,WindSpeedGustMPH,Humidity,HourlyPrecipIn,Conditions,Clouds,dailyrainin,SoftwareType,DateUTC
2013-01-17 00:03:00,30.0,-99.9,30.07,SW,225,3.0,6.0,-999,0.00,,,0.02,,2013-01-17 06:03:00,
2013-01-17 00:12:00,29.0,-99.9,30.07,SSW,203,6.0,6.0,-999,0.00,,,0.02,,2013-01-17 06:12:00,
2013-01-17 00:22:00,29.0,-99.9,30.07,SSW,203,6.0,6.0,-999,0.00,,,0.02,,2013-01-17 06:22:00,
2013-01-17 00:33:00,29.0,-99.9,30.07,South,180,6.0,7.0,-999,0.00,,,0.02,,2013-01-17 06:33:00,
2013-01-17 00:42:00,29.0,-99.9,30.07,South,180,6.0,7.0,-999,0.00,,,0.02,,2013-01-17 06:42:00,
2013-01-17 00:53:00,29.0,-99.9,30.08,South,180,2.0,6.0,-999,0.00,,,0.02,,2013-01-17 06:53:00,
2013-01-17 01:02:00,29.0,-99.9,30.09,South,180,5.0,6.0,-999,0.00,,,0.02,,2013-01-17 07:02:00,
2013-01-17 01:12:00,29.0,-99.9,30.09,South,180,5.0,6.0,-999,0.00,,,0.02,,2013-01-17 07:12:00,
2013-01-17 01:22:00,31.0,-99.9,30.09,SSW,203,3.0,6.0,-999,0.00,,,0.02,,2013-01-17 07:22:00,
2013-01-17 01:33:00,31.0,-99.9,30.10,SW,225,5.0,6.0,-999,0.00,,,0.02,,2013-01-17 07:33:00,
2013-01-17 01:43:00,31.0,-99.9,30.10,SW,225,5.0,6.0,-999,0.00,,,0.02,,2013-01-17 07:43:00,
2013-01-17 01:53:00,31.0,-99.9,30.10,SW,225,3.0,6.0,-999,0.00,,,0.02,,2013-01-17 07:53:00,
2013-01-17 02:02:00,32.0,-99.9,30.10,SSW,203,0.0,5.0,-999,0.00,,,0.02,,2013-01-17 08:02:00,
2013-01-17 02:12:00,32.0,-99.9,30.10,SSW,203,0.0,5.0,-999,0.00,,,0.02,,2013-01-17 08:12:00,
2013-01-17 02:22:00,32.0,-99.9,30.11,SSW,203,0.0,0.0,-999,0.00,,,0.02,,2013-01-17 08:22:00,
2013-01-17 02:32:00,32.0,-99.9,30.11,South,180,0.0,3.0,-999,0.00,,,0.02,,2013-01-17 08:32:00,
2013-01-17 02:44:00,32.0,-99.9,30.11,South,180,0.0,3.0,-999,0.00,,,0.02,,2013-01-17 08:44:00,
2013-01-17 02:53:00,32.0,-99.9,30.12,South,180,0.0,0.0,-999,0.00,,,0.02,,2013-01-17 08:53:00,
2013-01-17 03:03:00,31.0,-99.9,30.12,South,180,0.0,0.0,-999,0.00,,,0.02,,2013-01-17 09:03:00,
2013-01-17 03:12:00,31.0,-99.9,30.12,South,180,0.0,0.0,-999,0.00,,,0.02,,2013-01-17 09:12:00,
2013-01-17 03:22:00,32.0,-99.9,30.13,South,180,0.0,0.0,-999,0.00,,,0.02,,2013-01-17 09:22:00,
2013-01-17 03:33:00,32.0,-99.9,30.11,South,180,0.0,0.0,-999,0.00,,,0.02,,2013-01-17 09:33:00,
2013-01-17 03:43:00,32.0,-99.9,30.11,South,180,0.0,0.0,-999,0.00,,,0.02,,2013-01-17 09:43:00,
2013-01-17 03:53:00,31.0,-99.9,30.12,South,180,0.0,0.0,-999,0.00,,,0.02,,2013-01-17 09:53:00,
2013-01-17 04:02:00,30.0,-99.9,30.11,South,180,0.0,0.0,-999,0.00,,,0.02,,2013-01-17 10:02:00,
2013-01-17 04:12:00,30.0,-99.9,30.11,South,180,0.0,0.0,-999,0.00,,,0.02,,2013-01-17 10:12:00,
2013-01-17 04:22:00,30.0,-99.9,30.12,South,180,0.0,0.0,-999,0.00,,,0.02,,2013-01-17 10:22:00,
2013-01-17 04:33:00,30.0,-99.9,30.13,West,270,5.0,7.0,-999,0.00,,,0.02,,2013-01-17 10:33:00,
2013-01-17 04:43:00,30.0,-99.9,30.13,West,270,5.0,7.0,-999,0.00,,,0.02,,2013-01-17 10:43:00,
2013-01-17 04:53:00,30.0,-99.9,30.13,WNW,293,3.0,8.0,-999,0.00,,,0.02,,2013-01-17 10:53:00,
2013-01-17 05:03:00,29.0,-99.9,30.14,West,270,2.0,6.0,-999,0.00,,,0.02,,2013-01-17 11:03:00,
2013-01-17 05:12:00,29.0,-99.9,30.14,West,270,2.0,6.0,-999,0.00,,,0.02,,2013-01-17 11:12:00,
2013-01-17 05:23:00,31.0,-99.9,30.14,WNW,293,7.0,10.0,-999,0.00,,,0.02,,2013-01-17 11:23:00,
2013-01-17 05:33:00,30.0,-99.9,30.15,NW,315,6.0,9.0,-999,0.00,,,0.02,,2013-01-17 11:33:00,
2013-01-17 05:43:00,30.0,-99.9,30.15,NW,315,6.0,9.0,-999,0.00,,,0.02,,2013-01-17 11:43:00,
2013-01-17 05:53:00,30.0,-99.9,30.16,NW,315,6.0,9.0,-999,0.00,,,0.02,,2013-01-17 11:53:00,
2013-01-17 06:03:00,31.0,-99.9,30.16,NNW,338,6.0,9.0,-999,0.00,,,0.02,,2013-01-17 12:03:00,
2013-01-17 06:12:00,31.0,-99.9,30.16,NNW,338,6.0,9.0,-999,0.00,,,0.02,,2013-01-17 12:12:00,
2013-01-17 06:23:00,30.0,-99.9,30.17,NW,315,1.0,7.0,-999,0.00,,,0.02,,2013-01-17 12:23:00,
2013-01-17 06:33:00,30.0,-99.9,30.18,North,0,3.0,6.0,-999,0.00,,,0.02,,2013-01-17 12:33:00,
2013-01-17 06:43:00,30.0,-99.9,30.18,North,0,3.0,6.0,-999,0.00,,,0.02,,2013-01-17 12:43:00,
2013-01-17 06:53:00,30.0,-99.9,30.19,North,0,6.0,8.0,-999,0.00,,,0.02,,2013-01-17 12:53:00,
2013-01-17 07:03:00,30.0,-99.9,30.19,North,0,6.0,8.0,-999,0.00,,,0.02,,2013-01-17 13:03:00,
2013-01-17 07:13:00,30.0,-99.9,30.19,North,0,6.0,8.0,-999,0.00,,,0.02,,2013-01-17 13:13:00,
2013-01-17 07:23:00,30.0,-99.9,30.20,North,0,8.0,12.0,-999,0.00,,,0.02,,2013-01-17 13:23:00,
2013-01-17 07:33:00,30.0,-99.9,30.21,North,0,7.0,14.0,-999,0.00,,,0.02,,2013-01-17 13:33:00,
2013-01-17 07:43:00,30.0,-99.9,30.21,North,0,7.0,14.0,-999,0.00,,,0.02,,2013-01-17 13:43:00,
2013-01-17 07:53:00,29.0,-99.9,30.22,North,0,7.0,10.0,-999,0.00,,,0.02,,2013-01-17 13:53:00,
2013-01-17 08:03:00,29.0,-99.9,30.23,North,0,6.0,10.0,-999,0.00,,,0.02,,2013-01-17 14:03:00,
2013-01-17 08:13:00,29.0,-99.9,30.23,North,0,6.0,10.0,-999,0.00,,,0.02,,2013-01-17 14:13:00,
2013-01-17 08:23:00,30.0,-99.9,30.23,North,0,5.0,8.0,-999,0.00,,,0.02,,2013-01-17 14:23:00,
2013-01-17 08:33:00,30.0,-99.9,30.24,North,0,3.0,6.0,-999,0.00,,,0.02,,2013-01-17 14:33:00,
2013-01-17 08:43:00,30.0,-99.9,30.24,North,0,3.0,6.0,-999,0.00,,,0.02,,2013-01-17 14:43:00,
2013-01-17 08:53:00,31.0,-99.9,30.25,North,0,6.0,8.0,-999,0.00,,,0.02,,2013-01-17 14:53:00,
2013-01-17 09:03:00,31.0,-99.9,30.25,North,0,9.0,12.0,-999,0.00,,,0.02,,2013-01-17 15:03:00,
2013-01-17 09:13:00,31.0,-99.9,30.25,North,0,9.0,12.0,-999,0.00,,,0.02,,2013-01-17 15:13:00,
2013-01-17 09:23:00,32.0,-99.9,30.26,North,0,7.0,13.0,-999,0.00,,,0.02,,2013-01-17 15:23:00,
2013-01-17 09:33:00,32.0,-99.9,30.27,North,0,8.0,12.0,-999,0.00,,,0.02,,2013-01-17 15:33:00,
2013-01-17 09:43:00,32.0,-99.9,30.27,North,0,8.0,12.0,-999,0.00,,,0.02,,2013-01-17 15:43:00,
2013-01-17 09:53:00,32.0,-99.9,30.28,North,0,9.0,12.0,-999,0.00,,,0.02,,2013-01-17 15:53:00,
2013-01-17 10:03:00,33.0,-99.9,30.29,North,0,7.0,14.0,-999,0.00,,,0.02,,2013-01-17 16:03:00,
2013-01-17 10:13:00,33.0,-99.9,30.29,North,0,7.0,14.0,-999,0.00,,,0.02,,2013-01-17 16:13:00,
2013-01-17 10:23:00,34.0,-99.9,30.29,NNE,23,9.0,15.0,-999,0.00,,,0.01,,2013-01-17 16:23:00,
2013-01-17 10:34:00,33.0,-99.9,30.29,North,0,7.0,12.0,-999,0.00,,,0.01,,2013-01-17 16:34:00,
2013-01-17 10:44:00,33.0,-99.9,30.29,North,0,7.0,12.0,-999,0.00,,,0.01,,2013-01-17 16:44:00,
2013-01-17 10:53:00,34.0,-99.9,30.29,North,0,9.0,13.0,-999,0.00,,,0.01,,2013-01-17 16:53:00,
2013-01-17 11:03:00,35.0,-99.9,30.29,NNW,338,8.0,13.0,-999,0.00,,,0.01,,2013-01-17 17:03:00,
2013-01-17 11:13:00,35.0,-99.9,30.29,NNW,338,8.0,13.0,-999,0.00,,,0.01,,2013-01-17 17:13:00,
2013-01-17 11:23:00,35.0,-99.9,30.28,North,0,8.0,13.0,-999,0.00,,,0.01,,2013-01-17 17:23:00,
2013-01-17 11:33:00,34.0,-99.9,30.28,North,0,9.0,14.0,-999,0.00,,,0.01,,2013-01-17 17:33:00,
2013-01-17 11:43:00,34.0,-99.9,30.28,North,0,9.0,14.0,-999,0.00,,,0.01,,2013-01-17 17:43:00,
2013-01-17 11:54:00,35.0,-99.9,30.29,North,0,9.0,13.0,-999,0.00,,,0.01,,2013-01-17 17:54:00,
2013-01-17 12:04:00,36.0,-99.9,30.28,North,0,8.0,14.0,-999,0.00,,,0.01,,2013-01-17 18:04:00,
2013-01-17 12:13:00,36.0,-99.9,30.28,North,0,8.0,14.0,-999,0.00,,,0.01,,2013-01-17 18:13:00,
2013-01-17 12:23:00,36.0,-99.9,30.28,North,0,9.0,15.0,-999,0.00,,,0.01,,2013-01-17 18:23:00,
2013-01-17 12:34:00,36.0,-99.9,30.28,NNW,338,13.0,18.0,-999,0.00,,,0.01,,2013-01-17 18:34:00,
2013-01-17 12:44:00,36.0,-99.9,30.28,NNW,338,13.0,18.0,-999,0.00,,,0.01,,2013-01-17 18:44:00,
2013-01-17 12:54:00,36.0,-99.9,30.28,NNW,338,6.0,13.0,-999,0.00,,,0.01,,2013-01-17 18:54:00,
2013-01-17 13:04:00,36.0,-99.9,30.28,NNW,338,10.0,17.0,-999,0.00,,,0.00,,2013-01-17 19:04:00,
2013-01-17 13:13:00,36.0,-99.9,30.28,NNW,338,10.0,17.0,-999,0.00,,,0.00,,2013-01-17 19:13:00,
2013-01-17 13:23:00,37.0,-99.9,30.28,North,0,10.0,16.0,-999,0.00,,,0.00,,2013-01-17 19:23:00,
2013-01-17 13:33:00,37.0,-99.9,30.27,NNW,338,12.0,15.0,-999,0.00,,,0.00,,2013-01-17 19:33:00,
2013-01-17 13:43:00,37.0,-99.9,30.27,NNW,338,12.0,15.0,-999,0.00,,,0.00,,2013-01-17 19:43:00,
2013-01-17 13:54:00,37.0,-99.9,30.27,NNW,338,7.0,18.0,-999,0.00,,,0.00,,2013-01-17 19:54:00,
2013-01-17 14:03:00,37.0,-99.9,30.27,North,0,10.0,18.0,-999,0.00,,,0.00,,2013-01-17 20:03:00,
2013-01-17 14:13:00,37.0,-99.9,30.27,North,0,10.0,18.0,-999,0.00,,,0.00,,2013-01-17 20:13:00,
2013-01-17 14:23:00,36.0,-99.9,30.27,NNW,338,13.0,18.0,-999,0.00,,,0.00,,2013-01-17 20:23:00,
2013-01-17 14:34:00,36.0,-99.9,30.27,NW,315,10.0,16.0,-999,0.00,,,0.00,,2013-01-17 20:34:00,
2013-01-17 14:44:00,36.0,-99.9,30.27,NW,315,10.0,16.0,-999,0.00,,,0.00,,2013-01-17 20:44:00,
2013-01-17 14:54:00,37.0,-99.9,30.28,NNW,338,10.0,16.0,-999,0.00,,,0.00,,2013-01-17 20:54:00,
2013-01-17 15:03:00,38.0,-99.9,30.28,NNW,338,9.0,16.0,-999,0.00,,,0.00,,2013-01-17 21:03:00,
2013-01-17 15:13:00,38.0,-99.9,30.28,NNW,338,9.0,16.0,-999,0.00,,,0.00,,2013-01-17 21:13:00,
2013-01-17 15:23:00,38.0,-99.9,30.28,NNW,338,9.0,18.0,-999,0.00,,,0.00,,2013-01-17 21:23:00,
2013-01-17 15:34:00,38.0,-99.9,30.28,NNW,338,9.0,16.0,-999,0.00,,,0.00,,2013-01-17 21:34:00,
2013-01-17 15:43:00,38.0,-99.9,30.28,NNW,338,9.0,16.0,-999,0.00,,,0.00,,2013-01-17 21:43:00,
2013-01-17 15:54:00,39.0,-99.9,30.29,NNW,338,9.0,16.0,-999,0.00,,,0.00,,2013-01-17 21:54:00,
2013-01-17 16:04:00,37.0,-99.9,30.30,NNW,338,10.0,17.0,-999,0.00,,,0.00,,2013-01-17 22:04:00,
2013-01-17 16:12:00,37.0,-99.9,30.30,NNW,338,10.0,17.0,-999,0.00,,,0.00,,2013-01-17 22:12:00,
2013-01-17 16:23:00,36.0,-99.9,30.31,NNW,338,8.0,15.0,-999,0.00,,,0.00,,2013-01-17 22:23:00,
2013-01-17 16:33:00,36.0,-99.9,30.31,NNW,338,9.0,18.0,-999,0.00,,,0.00,,2013-01-17 22:33:00,
2013-01-17 16:43:00,36.0,-99.9,30.31,NNW,338,9.0,18.0,-999,0.00,,,0.00,,2013-01-17 22:43:00,
2013-01-17 16:53:00,35.0,-99.9,30.32,NNW,338,6.0,16.0,-999,0.00,,,0.00,,2013-01-17 22:53:00,
2013-01-17 17:03:00,31.0,-99.9,30.33,NNW,338,6.0,16.0,-999,0.00,,,0.00,,2013-01-17 23:03:00,
2013-01-17 17:12:00,31.0,-99.9,30.33,NNW,338,6.0,16.0,-999,0.00,,,0.00,,2013-01-17 23:12:00,
2013-01-17 17:23:00,30.0,-99.9,30.34,NNW,338,8.0,15.0,-999,0.00,,,0.00,,2013-01-17 23:23:00,
2013-01-17 17:33:00,29.0,-99.9,30.34,NNW,338,8.0,16.0,-999,0.00,,,0.00,,2013-01-17 23:33:00,
2013-01-17 17:43:00,29.0,-99.9,30.34,NNW,338,8.0,16.0,-999,0.00,,,0.00,,2013-01-17 23:43:00,
2013-01-17 17:53:00,29.0,-99.9,30.35,NNW,338,9.0,15.0,-999,0.00,,,0.00,,2013-01-17 23:53:00,
2013-01-17 18:03:00,29.0,-99.9,30.35,NNW,338,8.0,14.0,-999,0.00,,,0.00,,2013-01-18 00:03:00,
2013-01-17 18:13:00,29.0,-99.9,30.35,NNW,338,8.0,14.0,-999,0.00,,,0.00,,2013-01-18 00:13:00,
2013-01-17 18:23:00,28.0,-99.9,30.35,NNW,338,7.0,12.0,-999,0.00,,,0.00,,2013-01-18 00:23:00,
2013-01-17 18:33:00,28.0,-99.9,30.35,NNW,338,7.0,12.0,-999,0.00,,,0.00,,2013-01-18 00:33:00,
2013-01-17 18:43:00,28.0,-99.9,30.36,NNW,338,7.0,10.0,-999,0.00,,,0.00,,2013-01-18 00:43:00,
2013-01-17 18:53:00,27.0,-99.9,30.37,NNW,338,5.0,12.0,-999,0.00,,,0.00,,2013-01-18 00:53:00,
2013-01-17 19:03:00,27.0,-99.9,30.39,NNW,338,5.0,9.0,-999,0.00,,,0.00,,2013-01-18 01:03:00,
2013-01-17 19:13:00,27.0,-99.9,30.39,NNW,338,5.0,9.0,-999,0.00,,,0.00,,2013-01-18 01:13:00,
2013-01-17 19:23:00,26.0,-99.9,30.39,NW,315,3.0,9.0,-999,0.00,,,0.00,,2013-01-18 01:23:00,
2013-01-17 19:33:00,26.0,-99.9,30.39,NNW,338,3.0,8.0,-999,0.00,,,0.00,,2013-01-18 01:33:00,
2013-01-17 19:43:00,26.0,-99.9,30.39,NNW,338,3.0,8.0,-999,0.00,,,0.00,,2013-01-18 01:43:00,
2013-01-17 19:53:00,26.0,-99.9,30.39,NNW,338,5.0,8.0,-999,0.00,,,0.00,,2013-01-18 01:53:00,
2013-01-17 20:03:00,25.0,-99.9,30.40,NNW,338,5.0,8.0,-999,0.00,,,0.00,,2013-01-18 02:03:00,
2013-01-17 20:12:00,25.0,-99.9,30.40,NNW,338,5.0,8.0,-999,0.00,,,0.00,,2013-01-18 02:12:00,
2013-01-17 20:23:00,25.0,-99.9,30.40,North,0,0.0,6.0,-999,0.00,,,0.00,,2013-01-18 02:23:00,
2013-01-17 20:33:00,25.0,-99.9,30.41,NW,315,5.0,6.0,-999,0.00,,,0.00,,2013-01-18 02:33:00,
2013-01-17 20:43:00,25.0,-99.9,30.41,NW,315,5.0,6.0,-999,0.00,,,0.00,,2013-01-18 02:43:00,
2013-01-17 20:53:00,24.0,-99.9,30.41,WNW,293,0.0,5.0,-999,0.00,,,0.00,,2013-01-18 02:53:00,
2013-01-17 21:03:00,24.0,-99.9,30.41,WNW,293,0.0,0.0,-999,0.00,,,0.00,,2013-01-18 03:03:00,
2013-01-17 21:13:00,24.0,-99.9,30.41,WNW,293,0.0,0.0,-999,0.00,,,0.00,,2013-01-18 03:13:00,
2013-01-17 21:23:00,23.0,-99.9,30.42,WNW,293,0.0,0.0,-999,0.00,,,0.00,,2013-01-18 03:23:00,
2013-01-17 21:33:00,22.0,-99.9,30.42,WNW,293,0.0,0.0,-999,0.00,,,0.00,,2013-01-18 03:33:00,
2013-01-17 21:43:00,22.0,-99.9,30.42,WNW,293,0.0,0.0,-999,0.00,,,0.00,,2013-01-18 03:43:00,
2013-01-17 21:53:00,21.0,-99.9,30.42,WNW,293,0.0,0.0,-999,0.00,,,0.00,,2013-01-18 03:53:00,
2013-01-17 22:03:00,22.0,-99.9,30.42,WNW,293,0.0,0.0,-999,0.00,,,0.00,,2013-01-18 04:03:00,
2013-01-17 22:12:00,22.0,-99.9,30.42,WNW,293,0.0,0.0,-999,0.00,,,0.00,,2013-01-18 04:12:00,
2013-01-17 22:22:00,22.0,-99.9,30.42,WNW,293,0.0,0.0,-999,0.00,,,0.00,,2013-01-18 04:22:00,
2013-01-17 22:33:00,21.0,-99.9,30.42,WNW,293,0.0,0.0,-999,0.00,,,0.00,,2013-01-18 04:33:00,
2013-01-17 22:43:00,21.0,-99.9,30.42,WNW,293,0.0,0.0,-999,0.00,,,0.00,,2013-01-18 04:43:00,
2013-01-17 22:53:00,21.0,-99.9,30.42,WNW,293,0.0,0.0,-999,0.00,,,0.00,,2013-01-18 04:53:00,
2013-01-17 23:04:00,21.0,-99.9,30.42,WNW,293,0.0,0.0,-999,0.00,,,0.00,,2013-01-18 05:04:00,
2013-01-17 23:12:00,21.0,-99.9,30.42,WNW,293,0.0,0.0,-999,0.00,,,0.00,,2013-01-18 05:12:00,
2013-01-17 23:22:00,20.0,-99.9,30.42,WSW,248,2.0,5.0,-999,0.00,,,0.00,,2013-01-18 05:22:00,
2013-01-17 23:33:00,22.0,-99.9,30.42,WSW,248,0.0,0.0,-999,0.00,,,0.00,,2013-01-18 05:33:00,
2013-01-17 23:43:00,22.0,-99.9,30.42,WSW,248,0.0,0.0,-999,0.00,,,0.00,,2013-01-18 05:43:00,
2013-01-17 23:53:00,20.0,-99.9,30.42,WSW,248,0.0,0.0,-999,0.00,,,0.00,,2013-01-18 05:53:00,